Weather History for Bluefield, WV

Change the Weather History Date:

Friday, May 24, 2013

  Actual Average Record
Temperature  
Mean Temperature 50 °F 64 °F  
Max Temperature 58 °F 74 °F 83 °F (1991)
Min Temperature 42 °F 55 °F 40 °F (1963)
Degree Days  
Heating Degree Days 15 3  
Month to date heating degree days 137 118  
Since 1 July heating degree days 4665 4548  
Cooling Degree Days 0 3  
Month to date cooling degree days 49 41  
Year to date cooling degree days 76 69  
Growing Degree Days 1 (Base 50)    
Moisture  
Dew Point 42 °F    
Average Humidity 64    
Maximum Humidity 89    
Minimum Humidity 39    
Precipitation  
Precipitation 0.06 in 0.14 in 0.87 in (2011)
Month to date precipitation 3.22 3.25  
Year to date precipitation 18.52 15.76  
Snow  
Snow 0.00 in - - ()
Month to date snowfall 0.0  
Since 1 July snowfall 56.0  
Snow Depth 0.00 in    
Sea Level Pressure  
Sea Level Pressure 30.09 in    
Wind  
Wind Speed 10 mph (NW)    
Max Wind Speed 24 mph    
Max Gust Speed 31 mph    
Visibility 9 miles    
Events Rain    
T = Trace of Precipitation, MM = Missing Value Source: NWS Daily Summary

Daily Weather History Graph

Daily Weather History Graph

Search for Another Location

Airport:

Trip Planner

Search our weather history database for the weather conditions in past years. The results will help you decide how hot, cold, wet, or windy it might be!

Date:

Astronomy

May. 24, 2013 Rise Set
Actual Time 6:09 AM EDT 8:34 PM EDT
Civil Twilight 5:39 AM EDT 9:04 PM EDT
Nautical Twilight 5:02 AM EDT 9:41 PM EDT
Astronomical Twilight 4:22 AM EDT 10:21 PM EDT
Moon 8:15 PM EDT (5/24) 5:39 AM EDT (5/24)
Length of Visible Light 15h 24m
Length of Day
14h 24m
Full, 100% of the Moon is Illuminated
May 24
Full
May 25
Full
May 31
Last Quarter
Jun 8
New
Jun 16
First Quarter

Hourly Weather History & Observations

Time (EDT) Temp. Windchill Dew Point Humidity Pressure Visibility Wind Dir Wind Speed Gust Speed Precip Events Conditions
12:12 AM 57.2 °F - 53.6 °F 88% 29.99 in 10.0 mi West 5.8 mph - 0.01 in   Overcast
12:19 AM 57.2 °F - 53.6 °F 88% 29.99 in 10.0 mi West 6.9 mph - 0.01 in   Overcast
12:52 AM 57.9 °F - 53.1 °F 84% 29.91 in 10.0 mi WNW 9.2 mph - 0.01 in   Overcast
1:19 AM 57.2 °F - 53.6 °F 88% 29.98 in 10.0 mi WNW 4.6 mph - N/A   Overcast
1:40 AM 57.2 °F - 53.6 °F 88% 29.98 in 10.0 mi West 6.9 mph - N/A   Overcast
1:52 AM 57.9 °F - 53.1 °F 84% 29.88 in 9.0 mi WNW 4.6 mph - N/A   Overcast
2:52 AM 57.9 °F - 52.0 °F 81% 29.86 in 10.0 mi NW 9.2 mph - N/A   Overcast
3:52 AM 57.0 °F - 52.0 °F 83% 29.86 in 9.0 mi West 8.1 mph - 0.00 in Rain Light Rain
4:52 AM 55.0 °F - 50.0 °F 83% 29.89 in 10.0 mi NW 13.8 mph 24.2 mph 0.02 in Rain Light Rain
5:13 AM 53.6 °F - 48.2 °F 82% 29.99 in 10.0 mi NW 12.7 mph 20.7 mph 0.00 in   Overcast
5:18 AM 53.6 °F - 48.2 °F 82% 30.00 in 10.0 mi Variable 5.8 mph 18.4 mph 0.00 in Rain Light Rain
5:37 AM 51.8 °F - 46.4 °F 82% 30.01 in 8.0 mi WNW 10.4 mph 19.6 mph 0.00 in Rain Light Rain
5:52 AM 51.1 °F - 46.9 °F 86% 29.96 in 10.0 mi NW 11.5 mph 18.4 mph 0.01 in Rain Light Rain
6:52 AM 48.0 °F - 44.1 °F 86% 30.02 in 3.0 mi NW 11.5 mph 20.7 mph 0.03 in Rain Light Rain
6:55 AM 48.2 °F - 44.6 °F 87% 30.06 in 1.8 mi NW 10.4 mph 20.7 mph 0.00 in Rain Light Rain
7:04 AM 46.4 °F 41.5 °F 42.8 °F 87% 30.07 in 3.0 mi NW 10.4 mph 19.6 mph 0.00 in   Overcast
7:35 AM 46.4 °F 42.9 °F 41.0 °F 81% 30.09 in 10.0 mi Variable 6.9 mph 16.1 mph 0.00 in   Overcast
7:52 AM 46.0 °F 40.6 °F 41.0 °F 83% 30.06 in 10.0 mi NW 11.5 mph 21.9 mph 0.00 in   Overcast
8:52 AM 46.0 °F 41.4 °F 41.0 °F 83% 30.07 in 5.0 mi NW 9.2 mph 16.1 mph N/A   Haze
8:59 AM 46.4 °F 41.9 °F 41.0 °F 81% 30.11 in 5.0 mi NW 9.2 mph - N/A   Haze
9:38 AM 46.4 °F 42.9 °F 41.0 °F 81% 30.14 in 10.0 mi Variable 6.9 mph - 0.00 in   Overcast
9:52 AM 46.0 °F 41.0 °F 39.9 °F 79% 30.11 in 10.0 mi NW 10.4 mph 17.3 mph 0.00 in   Overcast
10:52 AM 45.0 °F 39.7 °F 41.0 °F 86% 30.13 in 10.0 mi WNW 10.4 mph 20.7 mph 0.00 in   Overcast
11:25 AM 46.4 °F 41.9 °F 39.2 °F 76% 30.18 in 10.0 mi NW 9.2 mph 18.4 mph N/A   Overcast
11:35 AM 46.4 °F 40.7 °F 39.2 °F 76% 30.18 in 10.0 mi NW 12.7 mph 23.0 mph N/A   Overcast
11:52 AM 48.0 °F - 39.9 °F 74% 30.14 in 10.0 mi WNW 10.4 mph 20.7 mph N/A   Overcast
12:52 PM 50.0 °F - 37.9 °F 63% 30.15 in 10.0 mi NW 13.8 mph 23.0 mph N/A   Overcast
1:00 PM 51.8 °F - 37.4 °F 58% 30.19 in 10.0 mi NW 16.1 mph 23.0 mph N/A   Mostly Cloudy
1:11 PM 51.8 °F - 37.4 °F 58% 30.19 in 10.0 mi NW 10.4 mph 23.0 mph N/A   Overcast
1:48 PM 51.8 °F - 35.6 °F 54% 30.20 in 10.0 mi NW 11.5 mph 27.6 mph N/A   Overcast
1:52 PM 53.1 °F - 36.0 °F 52% 30.15 in 10.0 mi NW 12.7 mph 27.6 mph N/A   Mostly Cloudy
2:52 PM 54.0 °F - 35.1 °F 49% 30.15 in 10.0 mi NW 11.5 mph 27.6 mph N/A   Mostly Cloudy
3:52 PM 57.0 °F - 33.1 °F 40% 30.15 in 10.0 mi NNW 10.4 mph 28.8 mph N/A   Partly Cloudy
4:52 PM 57.0 °F - 32.0 °F 39% 30.15 in 10.0 mi NW 17.3 mph 26.5 mph N/A   Partly Cloudy
5:52 PM 55.9 °F - 33.1 °F 42% 30.17 in 10.0 mi NW 16.1 mph 23.0 mph N/A   Clear
6:52 PM 55.0 °F - 33.1 °F 43% 30.19 in 10.0 mi NW 15.0 mph 24.2 mph N/A   Clear
7:52 PM 52.0 °F - 33.1 °F 49% 30.22 in 10.0 mi NW 9.2 mph 18.4 mph N/A   Clear
8:52 PM 48.9 °F - 34.0 °F 56% 30.23 in 10.0 mi NW 6.9 mph - N/A   Clear
9:52 PM 48.0 °F - 34.0 °F 58% 30.25 in 10.0 mi WNW 5.8 mph - N/A   Clear
10:52 PM 46.9 °F - 35.1 °F 63% 30.26 in 10.0 mi WNW 5.8 mph - N/A   Clear
11:52 PM 46.0 °F 43.1 °F 35.1 °F 66% 30.25 in 10.0 mi WNW 5.8 mph - N/A   Clear